Torna al catalogo

STARLINK-38189

AttivoComunicazioniSSO
NORAD 100213·PAYLOAD·🇺🇸 United States

Lanciato Aug 4, 2026 da Vandenberg Space Force Base

Loading…

Prossimi Passaggi (prossime 24 ore)

TLE

AggiornatoSource: Space-Track

Epoca: Sep 14, 2026, 22:45 UTC

1 A0213U 26177A   26257.94838258  .00024105  00000-0  44299-3 0  9991
2 A0213  97.2836 308.7315 0001506 106.2891 253.8526 15.49223647  6504

Traccia STARLINK-38189 in tempo reale con AllMySat

Download on the App Store